(32881) = 1993 OK6 = 2000 JW5

Discovered at La Silla on 1993-07-20 by E. W. Elst.

Orbit

Orbit type: Main Belt

Note: WebGL enabled browser required.

epoch2023-09-13.0
epoch JD2460200.5
perihelion date2020-06-25.65202
perihelion JD2459026.15202
argument of perihelion (°)237.71538
ascending node (°)111.94633
inclination (°)4.92511
eccentricity0.1618840
perihelion distance (AU)2.0372974
Tisserand w.r.t. Jupiter3.5
ΔV w.r.t. Earth (km/sec)9.0
semimajor axis (AU)2.4308060
mean anomaly (°)305.40434
mean daily motion (°/day)0.26006290
aphelion distance (AU)2.824
period (years)3.79
P-vector [x]0.98087008
P-vector [y]-0.13685040
P-vector [z]-0.13844080
Q-vector [x]0.17763058
Q-vector [y]0.92015148
Q-vector [z]0.34895364
absolute magnitude15.3
phase slope0.15
uncertainty0
referenceMPEC 2024-A34
observations used1986
oppositions21
arc length (days)10980
first opposition used1993
last opposition used2023
residual rms (arc-secs)0.71
perturbers coarse indicatorM-v
perturbers precise indicator003Ek
first observation date used1993-07-13.0
last observation date used2023-08-04.0
computer nameMPCLINUX
JD of orbit computation2456819.547349
perihelion JD uncertainty (days)5.1998E-05
argument of perihelion uncertainty (°)3.9658E-05
ascending node uncertainty (°)3.8236E-05
inclination uncertainty (°)3.2295E-06
eccentricity uncertainty 3.4031E-08
perihelion distance uncertainty (AU)8.2935E-08
Minimum Orbit Intersection Distances (in AU)
for orbit epoch: 2460200.5, reference: E2024-A34
Mercury1.6524
Venus1.31019
Earth1.03517
Mars0.6561
Jupiter2.58375
Saturn6.45196
Uranus15.6283
Neptune27.5917

Observations

1987 total observations over interval: 1993 07 13.21111 – 2023 08 04.77726
These data are available for download (format description).

Date (UT) J2000 RA J2000 Dec Magn Location Ref
1993 07 13.21111 20 15 17.38 -20 32 08.2 18.2   809 – European Southern Observatory, La Silla MPC 22783
1993 07 13.22431 20 15 16.61 -20 32 12.8   809 – European Southern Observatory, La Silla MPC 22783
1993 07 13.23750 20 15 15.87 -20 32 18.3   809 – European Southern Observatory, La Silla MPC 22783
1993 07 20.24375 20 08 58.61 -21 15 11.2 17.9   809 – European Southern Observatory, La Silla MPC 22566
1993 07 20.25694 20 08 57.80 -21 15 15.9   809 – European Southern Observatory, La Silla MPC 22566
1993 07 20.27014 20 08 57.01 -21 15 21.2   809 – European Southern Observatory, La Silla MPC 22566
1993 07 24.22708 20 05 13.81 -21 39 32.9   809 – European Southern Observatory, La Silla MPC 22566
1996 04 23.15977 13 13 45.02 +00 27 57.6 19.3 V 691 – Steward Observatory, Kitt Peak-Spacewatch MPS 80996
1996 04 23.18053 13 13 43.92 +00 28 03.0 19.3 V 691 – Steward Observatory, Kitt Peak-Spacewatch MPS 80996
1996 04 23.20204 13 13 42.77 +00 28 09.3 19.0 V 691 – Steward Observatory, Kitt Peak-Spacewatch MPS 80996
1998 11 18.45988 09 15 56.48 +16 08 12.2 20.7 V 691 – Steward Observatory, Kitt Peak-Spacewatch MPS 80996
1998 11 18.48197 09 15 57.26 +16 08 10.6 20.7 V 691 – Steward Observatory, Kitt Peak-Spacewatch MPS 80996
1998 11 18.50393 09 15 58.02 +16 08 09.0 20.7 V 691 – Steward Observatory, Kitt Peak-Spacewatch MPS 80996
1998 11 23.50893 09 18 43.44 +16 03 10.3 19.8 V 691 – Steward Observatory, Kitt Peak-Spacewatch MPS 15048
1998 11 23.52384 09 18 43.86 +16 03 09.7 19.9 V 691 – Steward Observatory, Kitt Peak-Spacewatch MPS 15048
1998 11 23.53883 09 18 44.26 +16 03 09.2 19.9 V 691 – Steward Observatory, Kitt Peak-Spacewatch MPS 15048
1999 02 23.19956 08 31 12.93 +21 52 04.4 19.0 R 699 – Lowell Observatory-LONEOS MPS 59464
1999 02 23.21992 08 31 12.10 +21 52 09.1   699 – Lowell Observatory-LONEOS MPS 59464
1999 02 23.24031 08 31 11.15 +21 52 13.8   699 – Lowell Observatory-LONEOS MPS 59464
2000 04 24.28489 14 48 02.81 -08 15 53.1 18.8 R 699 – Lowell Observatory-LONEOS MPS 14681
2000 04 24.30076 14 48 01.94 -08 15 49.6   699 – Lowell Observatory-LONEOS MPS 14681
2000 04 24.31653 14 48 01.05 -08 15 46.3   699 – Lowell Observatory-LONEOS MPS 14681
2000 04 24.33235 14 48 00.11 -08 15 42.0   699 – Lowell Observatory-LONEOS MPS 14681
2000 05 01.20154 14 41 33.00 -07 46 07.9 18.3   704 – Lincoln Laboratory ETS, New Mexico MPS 14681
2000 05 01.21386 14 41 32.34 -07 46 04.5 18.6   704 – Lincoln Laboratory ETS, New Mexico MPS 14681
2000 05 01.22624 14 41 31.56 -07 46 02.7 18.0   704 – Lincoln Laboratory ETS, New Mexico MPS 14681
2000 05 01.23859 14 41 30.73 -07 45 59.5 18.6   704 – Lincoln Laboratory ETS, New Mexico MPS 14681
2000 05 05.27541 14 37 38.09 -07 29 48.4 18.4   704 – Lincoln Laboratory ETS, New Mexico MPS 14681
2000 05 05.28816 14 37 37.25 -07 29 44.8 18.8   704 – Lincoln Laboratory ETS, New Mexico MPS 14681
2000 05 05.30077 14 37 36.49 -07 29 43.6 18.9   704 – Lincoln Laboratory ETS, New Mexico MPS 14681
2000 05 05.31336 14 37 35.79 -07 29 39.2 18.8   704 – Lincoln Laboratory ETS, New Mexico MPS 14681
2000 05 05.32578 14 37 35.06 -07 29 36.2 18.8   704 – Lincoln Laboratory ETS, New Mexico MPS 14681
2001 08 04.40265 01 48 44.46 +04 45 52.2 19.1   644 – Palomar Mountain/NEAT MPS 32721
2001 08 04.41354 01 48 45.13 +04 45 53.7 19.2   644 – Palomar Mountain/NEAT MPS 32721
2001 08 04.42438 01 48 45.74 +04 45 55.3 19.2   644 – Palomar Mountain/NEAT MPS 32721
2001 08 25.37060 02 04 42.69 +04 55 25.9 18.9   644 – Palomar Mountain/NEAT MPS 33102
2001 08 25.39230 02 04 43.27 +04 55 24.0 18.8   644 – Palomar Mountain/NEAT MPS 33102
2001 08 25.41352 02 04 43.83 +04 55 22.7 18.9   644 – Palomar Mountain/NEAT MPS 33102
2001 08 26.36020 02 05 09.95 +04 54 02.4 18.5   644 – Palomar Mountain/NEAT MPS 33960
2001 08 26.37154 02 05 10.24 +04 54 01.7 18.8   644 – Palomar Mountain/NEAT MPS 33960
2001 08 26.38648 02 05 10.60 +04 54 00.4 18.4   644 – Palomar Mountain/NEAT MPS 33960
2001 09 03.38629 02 07 43.38 +04 36 52.1 18.9   644 – Palomar Mountain/NEAT MPS 33960
2001 09 03.40765 02 07 43.54 +04 36 48.2 18.6   644 – Palomar Mountain/NEAT MPS 33960
2001 09 03.42899 02 07 43.77 +04 36 44.6 19.4   644 – Palomar Mountain/NEAT MPS 33960
2001 09 04.32701 02 07 53.33 +04 34 10.7 18.7   644 – Palomar Mountain/NEAT MPS 33960
2001 09 04.34819 02 07 53.49 +04 34 06.6 19.1   644 – Palomar Mountain/NEAT MPS 33960
2001 09 04.36972 02 07 53.66 +04 34 02.9 18.9   644 – Palomar Mountain/NEAT MPS 33960
2001 09 16.43292 02 07 21.09 +03 47 48.1 18.5   704 – Lincoln Laboratory ETS, New Mexico MPS 35323
2001 09 16.44771 02 07 20.86 +03 47 43.0 19.2   704 – Lincoln Laboratory ETS, New Mexico MPS 35323
2001 09 16.46188 02 07 20.56 +03 47 39.1 18.8   704 – Lincoln Laboratory ETS, New Mexico MPS 35323
2001 09 16.47624 02 07 20.23 +03 47 34.4 18.8   704 – Lincoln Laboratory ETS, New Mexico MPS 35323
2001 09 17.31451 02 07 07.54 +03 43 39.7 18.9   644 – Palomar Mountain/NEAT MPS 35323
2001 09 17.33136 02 07 07.12 +03 43 35.0 17.9 R 699 – Lowell Observatory-LONEOS MPS 35323
2001 09 17.33567 02 07 07.11 +03 43 33.9 18.1   644 – Palomar Mountain/NEAT MPS 35323
2001 09 17.35708 02 07 06.72 +03 43 27.7 18.8   644 – Palomar Mountain/NEAT MPS 35323
2001 09 17.35885 02 07 06.61 +03 43 27.3   699 – Lowell Observatory-LONEOS MPS 35323
2001 09 17.38639 02 07 06.08 +03 43 19.0   699 – Lowell Observatory-LONEOS MPS 35323
2001 09 17.41399 02 07 05.55 +03 43 11.0   699 – Lowell Observatory-LONEOS MPS 35323
2001 09 19.33651 02 06 29.66 +03 33 49.7 17.8   704 – Lincoln Laboratory ETS, New Mexico MPS 35323
2001 09 19.35091 02 06 29.34 +03 33 45.7 18.2   704 – Lincoln Laboratory ETS, New Mexico MPS 35323
2001 09 19.35557 02 06 29.28 +03 33 43.5 19.0 R 683 – Goodricke-Pigott Observatory, Tucson MPS 35323
2001 09 19.36503 02 06 28.98 +03 33 41.6 18.0   704 – Lincoln Laboratory ETS, New Mexico MPS 35323
2001 09 19.36675 02 06 28.98 +03 33 39.6 18.4 R 683 – Goodricke-Pigott Observatory, Tucson MPS 35323
2001 09 19.37923 02 06 28.70 +03 33 36.9 18.6   704 – Lincoln Laboratory ETS, New Mexico MPS 35323
2001 09 19.38013 02 06 28.63 +03 33 35.4 18.8 R 683 – Goodricke-Pigott Observatory, Tucson MPS 35323
2001 09 19.39362 02 06 28.32 +03 33 32.5 18.0   704 – Lincoln Laboratory ETS, New Mexico MPS 35323
2001 09 21.32805 02 05 44.80 +03 23 44.5 17.7   704 – Lincoln Laboratory ETS, New Mexico MPS 35323
2001 09 21.34279 02 05 44.39 +03 23 40.2 18.1   704 – Lincoln Laboratory ETS, New Mexico MPS 35323
2001 09 21.35681 02 05 44.00 +03 23 35.6 18.2   704 – Lincoln Laboratory ETS, New Mexico MPS 35323
2001 09 21.37133 02 05 43.59 +03 23 31.0 18.4   704 – Lincoln Laboratory ETS, New Mexico MPS 35323
2001 09 21.38580 02 05 43.22 +03 23 26.7 17.9   704 – Lincoln Laboratory ETS, New Mexico MPS 35323
2001 09 22.34668 02 05 18.98 +03 18 27.1 18.8 R 683 – Goodricke-Pigott Observatory, Tucson MPS 35323
2001 09 22.35786 02 05 18.69 +03 18 23.9 18.9 R 683 – Goodricke-Pigott Observatory, Tucson MPS 35323
2001 09 22.37125 02 05 18.22 +03 18 17.5 18.8 R 683 – Goodricke-Pigott Observatory, Tucson MPS 35323
2001 09 23.34414 02 04 51.85 +03 13 10.9 18.8 R 683 – Goodricke-Pigott Observatory, Tucson MPS 37368
2001 09 23.35551 02 04 51.48 +03 13 07.9 18.4 R 683 – Goodricke-Pigott Observatory, Tucson MPS 37368
2001 09 23.36890 02 04 51.04 +03 13 02.6 18.6 R 683 – Goodricke-Pigott Observatory, Tucson MPS 37368
2001 09 25.33760 02 03 52.16 +03 02 29.1 19.1 R 683 – Goodricke-Pigott Observatory, Tucson MPS 37368
2001 09 25.34913 02 03 51.90 +03 02 24.0 18.9 R 683 – Goodricke-Pigott Observatory, Tucson MPS 37368
2001 09 25.36218 02 03 51.26 +03 02 17.5 18.6 R 683 – Goodricke-Pigott Observatory, Tucson MPS 37368
2001 09 27.34633 02 02 45.25 +02 51 20.4 17.7   644 – Palomar Mountain/NEAT MPS 35323
2001 09 27.36709 02 02 44.46 +02 51 13.6 17.6   644 – Palomar Mountain/NEAT MPS 35323
2001 09 27.38738 02 02 43.71 +02 51 06.8 17.5   644 – Palomar Mountain/NEAT MPS 35323
2001 10 10.39274 01 53 10.62 +01 37 47.5 17.3   644 – Palomar Mountain/NEAT MPS 37368
2001 10 10.41396 01 53 09.48 +01 37 40.5 17.3   644 – Palomar Mountain/NEAT MPS 37368
2001 10 10.43502 01 53 08.35 +01 37 33.6 17.4   644 – Palomar Mountain/NEAT MPS 37368
